This demonstration page uses our WeatherBlox Daily Observations layout. Learn more.

Left ArrowRight Arrow

39.08367, -84.50855

Hourly Observations for June 10, 2015

Temp ( °F °C ) Dew Point ( °F °C ) Humidity (%) Winds ( mph kmh ) Pressure ( in mb ) Visibility ( mi km ) Precip ( " mm )
12:53 am 00:53 Clear with Mist and Fog 61 16.1 60 15.6 97 97 N N/A 29.89 1012 5 8 N/A
1:50 am 01:50 Clear with Mist and Fog 61 16 61 16 100 100 N N/A 29.91 1013 3 4 N/A
1:53 am 01:53 Clear with Mist and Fog 61 16.1 60 15.6 97 97 N N/A 29.88 1012 3 5 N/A
2:10 am 02:10 Mostly Cloudy with Fog 59 15 59 15 100 100 N N/A 29.91 1013 1 1 N/A
2:36 am 02:36 Clear with Mist and Fog 57 14 57 14 100 100 N N/A 29.88 1012 1 2 N/A
2:44 am 02:44 Clear with Mist and Fog 59 15 59 15 100 100 N N/A 29.88 1012 3 5 N/A
2:47 am 02:47 Clear with Mist and Fog 57 14 57 14 100 100 N N/A 29.88 1012 1 2 N/A
2:53 am 02:53 Clear with Fog 58 14.4 58 14.4 100 100 N N/A 29.88 1012 1 1 N/A
3:06 am 03:06 Clear with Mist and Fog 59 15 57 14 94 94 N N/A 29.88 1012 2 3 N/A
3:18 am 03:18 Mostly Cloudy with Fog 59 15 57 14 94 94 N N/A 29.91 1013 1 1 N/A
3:25 am 03:25 Mostly Cloudy with Fog 59 15 58 14.4 96 96 N N/A 29.91 1013 0 0 N/A
3:31 am 03:31 Mostly Cloudy with Mist and Fog 58 14.4 58 14.4 100 100 N N/A 29.91 1013 1 2 N/A
3:34 am 03:34 Mostly Cloudy with Mist and Fog 57 14 57 14 100 100 N N/A 29.91 1013 1 1 N/A
3:43 am 03:43 Mostly Cloudy with Fog 59 15 59 15 100 100 N N/A 29.88 1012 0 0 N/A
3:49 am 03:49 Mostly Cloudy with Fog 57 14 57 14 100 100 N N/A 29.88 1012 1 1 N/A
3:51 am 03:51 Mostly Cloudy with Mist and Fog 57 14 57 14 100 100 N N/A 29.88 1012 1 2 N/A
3:53 am 03:53 Mostly Cloudy with Mist and Fog 58 14.4 58 14.4 100 100 N N/A 29.88 1012 3 4 N/A
3:58 am 03:58 Mostly Cloudy with Mist and Fog 57 14 57 14 100 100 N N/A 29.88 1012 1 1 N/A
4:11 am 04:11 Mostly Cloudy with Fog 58 14.4 58 14.4 100 100 N N/A 29.88 1012 0 0 N/A
4:29 am 04:29 Mostly Cloudy with Fog 58 14.4 58 14.4 100 100 N N/A 29.88 1012 1 1 N/A
4:35 am 04:35 Partly Cloudy with Mist and Fog 58 14.4 58 14.4 100 100 N N/A 29.88 1012 1 2 N/A
4:53 am 04:53 Clear with Mist and Fog 58 14.4 58 14.4 100 100 N N/A 29.88 1012 2 3 N/A
4:57 am 04:57 Clear with Mist and Fog 57 13.9 57 13.9 100 100 N N/A 29.88 1012 1 1 N/A
5:13 am 05:13 Mostly Cloudy with Mist and Fog 58 14.4 58 14.4 100 100 N N/A 29.88 1012 1 1 N/A
5:22 am 05:22 Mostly Clear with Mist and Fog 58 14.4 57 13.9 97 97 N N/A 29.88 1012 1 2 N/A
5:26 am 05:26 Mostly Cloudy with Mist and Fog 57 14 57 14 100 100 N N/A 29.88 1012 1 1 N/A
5:38 am 05:38 Mostly Cloudy with Fog 57 14 57 14 100 100 N N/A 29.88 1012 0 0 N/A
5:41 am 05:41 Mostly Cloudy with Fog 57 13.9 57 13.9 100 100 N N/A 29.88 1012 1 1 N/A
5:45 am 05:45 Mostly Cloudy with Mist and Fog 57 13.9 57 13.9 100 100 N N/A 29.88 1012 1 2 N/A
5:53 am 05:53 Cloudy with Mist and Fog 58 14.4 58 14.4 100 100 N N/A 29.88 1012 3 4 N/A
6:03 am 06:03 Cloudy with Mist and Fog 57 14 57 14 100 100 N N/A 29.88 1012 1 1 N/A
6:12 am 06:12 Mostly Cloudy with Fog 59 15 59 15 100 100 N N/A 29.88 1012 0 0 N/A
6:53 am 06:53 Mostly Cloudy with Fog 59 15 59 15 100 100 N N/A 29.88 1012 5 8 N/A
7:45 am 07:45 Mostly Cloudy with Mist and Fog 61 16.1 61 16.1 100 100 N N/A 29.91 1013 1 1 N/A
7:48 am 07:48 Mostly Cloudy with Patchy Fog 63 17 63 17 100 100 N N/A 29.91 1013 2 3 N/A
7:53 am 07:53 Mostly Cloudy with Patchy Fog 62 16.7 62 16.7 100 100 N N/A 29.89 1012 2 3 N/A
8:17 am 08:17 Partly Cloudy with Mist and Fog 64 17.8 64 17.8 100 100 N N/A 29.91 1013 2 3 N/A
8:41 am 08:41 Sunny with Mist and Fog 66 18.9 64 17.8 93 93 N N/A 29.91 1013 5 8 N/A
8:53 am 08:53 Sunny with Mist and Fog 67 19.4 65 18.3 93 93 N N/A 29.89 1012 5 8 N/A
9:53 am 09:53 Sunny 76 24.4 65 18.3 69 69 SW 5 7 29.89 1012 7 11 N/A
10:53 am 10:53 Sunny 82 27.8 63 17.2 53 53 WSW 7 11 29.88 1012 7 11 N/A
11:53 am 11:53 Sunny 86 30 60 15.6 42 42 SW 8 13 29.88 1012 10 16 N/A
12:53 pm 12:53 Sunny 88 31.1 59 15 38 38 W 13 20 29.88 1012 10 16 N/A
1:53 pm 13:53 Sunny 88 31.1 60 15.6 39 39 WSW 10 17 29.86 1011 10 16 N/A
2:53 pm 14:53 Sunny 89 31.7 61 16.1 39 39 SSW 10 17 29.84 1011 10 16 N/A
3:53 pm 15:53 Sunny 88 31.1 61 16.1 40 40 SSW 10 17 29.83 1010 10 16 N/A
4:53 pm 16:53 Sunny 88 31.1 60 15.6 39 39 SSW 13 20 29.83 1010 10 16 N/A
5:53 pm 17:53 Sunny 87 30.6 60 15.6 40 40 SSW 12 19 29.82 1010 10 16 N/A
6:53 pm 18:53 Sunny 86 30 61 16.1 43 43 SSW 12 19 29.82 1010 10 16 N/A
7:53 pm 19:53 Sunny 83 28.3 63 17.2 51 51 S 8 13 29.83 1010 10 16 N/A
8:53 pm 20:53 Sunny 77 25 62 16.7 60 60 S 7 11 29.82 1010 10 16 N/A
9:53 pm 21:53 Clear 73 22.8 62 16.7 69 69 SSW 7 11 29.83 1010 10 16 N/A
10:53 pm 22:53 Clear 71 21.7 62 16.7 73 73 SSW 7 11 29.86 1011 10 16 N/A
11:53 pm 23:53 Clear 72 22.2 62 16.7 71 71 N N/A 29.88 1012 10 16 N/A

Powered by AerisWeather